HUBBLE
1 20580U 90037B 09327.91023735 .00000363 00000-0 15029-4 0 4803
2 20580 028.4678 139.8263 0003384 179.5615 180.4987 15.00857635873876
ISS
1 25544U 98067A 09329.02698647 .00075692 00000-0 47620-3 0 481
2 25544 051.6439 200.4034 0007446 015.9063 137.6737 15.75986051631290
CO-58
1 28895U 05043F 09327.63356092 .00000172 00000-0 45466-4 0 04500
2 28895 098.0374 213.5854 0017419 206.7113 153.3208 14.59817515216990
FALCON
1 30776U 07006E 09327.95790901 .00000521 00000-0 40599-4 0 07107
2 30776 035.4335 209.9753 0001425 263.4685 096.5871 15.03374739149157
MAST
1 31126U 07012K 09327.19178775 .00000068 00000-0 25678-4 0 7386
2 31126 097.9681 014.5389 0094959 145.7312 215.0063 14.53532377138137
CAPE1
1 31130U 07012P 09328.69640018 .00000027 00000-0 16774-4 0 7507
2 31130 097.9697 013.8019 0103179 147.7488 213.0070 14.52107866137980
COMPASS
1 32787U 08021E 09327.21053178 .00000568 00000-0 78764-4 0 05290
2 32787 097.9242 029.5311 0014902 233.8945 126.0881 14.81699850084990
AAUSAT2
1 32788U 08021F 09327.16499092 .00000601 00000-0 82721-4 0 05245
2 32788 097.9242 029.5716 0014377 234.2419 125.7454 14.81829056084992
DO-64
1 32789U 08021G 09328.73878341 .00000568 00000-0 78534-4 0 5359
2 32789 097.9282 031.4033 0014909 227.8817 132.1129 14.81864969 85222
CO-66
1 32791U 08021J 09327.20478607 .00000217 00000-0 34387-4 0 05207
2 32791 097.9238 029.5552 0015151 233.4762 126.5051 14.81514118084950
RS-30
1 32953U 08025A 09327.63961560 .00000010 00000-0 00000 0 0 4607
2 32953 082.4999 157.4854 0018660 189.3344 170.7391 12.43003197 68206
TACSAT-3
1 35001U 09028A 09327.56543958 .00004633 00000-0 11942-3 0 01699
2 35001 040.4557 007.1160 0024622 269.8223 089.9769 15.39624519028912
PHARMSAT
1 35002U 09028B 09327.53821732 .00003993 00000-0 10112-3 0 01513
2 35002 040.4695 006.2022 0027417 273.3049 086.4629 15.40342671028919
HAWKSAT1
1 35003U 09028C 09327.45713555 .00007539 00000-0 17898-3 0 01628
2 35003 040.4617 005.4273 0027178 277.0447 082.7276 15.41448017028920
CP6
1 35004U 09028D 09327.51600458 .00008738 00000-0 20542-3 0 1456
2 35004 040.4626 005.0013 0026453 277.8060 081.9748 15.41622851 28928
AEROCUB3
1 35005U 09028E 09327.79973996 .00008272 00000-0 19637-3 0 01587
2 35005 040.4753 003.8484 0026780 275.9304 083.8472 15.41374417028962
DRAGNSAT
1 35690U 09038B 09328.09687850 .00058393 00000-0 21222-3 0 1170
2 35690 051.6368 197.3385 0006133 159.4534 200.6718 15.87895713 18472
POLLUX
1 35693U 09038E 09327.33248859 .00050356 00000-0 19569-3 0 1229
2 35693 051.6386 202.0006 0005056 123.1813 236.9782 15.86600595 18317
CASTOR
1 35694U 09038F 09328.12493400 .00023561 00000-0 10922-3 0 1112
2 35694 051.6398 199.0805 0005072 117.7435 242.4115 15.83321225 18421
METEOR-M
1 35865U 09049A 09328.49334562 .00000176 00000-0 10000-3 0 626
2 35865 098.7894 018.4477 0001906 216.1521 143.9505 14.21827542 9630
